Regional Weather Roundup
Issued by NWS

Home | Current Version | Previous Version | Text Only | Print | Product List | Glossary Off
Versions: 1 2 3 4 5 6 7 8 9 10 11 12 13 14 15 16 17 18 19 20 21 22 23 24 25 26 27

000
ASUS45 KSLC 200210
RWRUT

UTAH REGIONAL WEATHER ROUNDUP
NATIONAL WEATHER SERVICE SALT LAKE CITY UT
700 PM MST THU JAN 19 2017

UTZ001>011-023>025-200300-

NORTHERN UTAH

CITY           SKY/WX    TMP DP  RH WIND       PRES   REMARKS
BRIGHAM CITY     N/A     30  28  92 CALM      29.75S
HILL AFB       LGT SNOW  32  32 100 CALM      29.72S FOG
LOGAN          CLOUDY    27  26  96 E3        29.73F FOG
OGDEN          SNOW      29  29 100 NW6       29.73S VSB 1/2 WCI  23
SALT LAKE CITY FOG       30  29  96 W3        29.73F VSB 1/2
TOOELE VALLEY  CLOUDY    28  28 100 NE7       29.73F FOG     WCI  21
WENDOVER       CLOUDY    23  19  86 NE6       29.74F WCI  16
HEBER CITY     LGT SNOW  32  30  93 CALM      29.68F
WEST JORDAN    CLOUDY    31  31 100 NW7       29.73S VSB 3/4 WCI  24

$$

UTZ011>015-024>027-200300-

CENTRAL/NORTHEAST UTAH

CITY           SKY/WX    TMP DP  RH WIND       PRES   REMARKS
PROVO AIRPORT  MIX PCPN  32  30  93 CALM      29.73F FOG
MOAB/CANYONLAN LGT SNOW  32  32 100 CALM      29.72S FOG
DELTA          CLOUDY    32  32 100 CALM      29.72S
PRICE          LGT SNOW  28  28 100 CALM      29.70F FOG
RICHFIELD      MOCLDY    34  34 100 CALM      29.71S
ROOSEVELT      CLOUDY    19  14  79 SW5       29.80S FOG     WCI  13
VERNAL         CLOUDY    17  13  84 CALM      29.77S FOG

$$

UTZ013>016-019>022-027-200300-

SOUTHERN UTAH

CITY           SKY/WX    TMP DP  RH WIND       PRES   REMARKS
BRYCE CANYON   FOG       28  27  96 SE10      29.70S VSB 1/4 WCI  19
CEDAR CITY     LGT SNOW  32  31  96 SW8       29.71S VSB 3/4 WCI  25
MILFORD        CLOUDY    35  33  92 S15       29.69F WCI  25
ST GEORGE      CLOUDY    43  39  87 CALM      29.80S
HANKSVILLE     CLOUDY    32  32 100 MISG      29.75F
KANAB          CLOUDY    34  34 100 SW5       29.81S FOG     WCI  30
BLANDING       CLOUDY    31  31 100 CALM      29.84S

$$

REGIONAL REPORTS     COLORADO/ARIZONA

CITY           SKY/WX    TMP DP  RH WIND       PRES   REMARKS
CRAIG, CO      LGT SNOW  27  24  89 E5        29.71F FOG     WCI  22
GRAND JUNCTION LGT SNOW  32  32 100 SE5       29.74S FOG     WCI  27
RIFLE, CO      LGT SNOW  31  31 100 CALM      29.74F FOG
MONTROSE, CO   LGT SNOW  32  32 100 CALM      29.75F FOG
CORTEZ, CO     LGT SNOW  32  32 100 SW5       29.78R FOG     WCI  27
COLORADO CITY  RAIN      34  34 100 E5        29.79F WCI  30
PAGE, AZ       CLOUDY    39  34  82 CALM      29.75S
GRAND CANYON   LGT SNOW  28  28 100 SW12      29.81F FOG     WCI  18
KINGMAN, AZ    LGT RAIN  41  36  82 SE13      29.82R
FLAGSTAFF, AZ  SNOW      28  27  96 SW10      29.82R VSB 1/2 WCI  19

$$

REGIONAL REPORTS    NEVADA/IDAHO/WYOMING

CITY           SKY/WX    TMP DP  RH WIND       PRES   REMARKS
LAS VEGAS, NV  MOCLDY    53  34  48 SW9       29.75R
ELY, NY        MOCLDY    20  19  96 S3        29.71R
ELKO, NV       PTCLDY    31  26  82 SW9       29.70R WCI  23
POCATELLO, ID  CLOUDY    35  27  72 S12       29.68F WCI  27
BURLEY, ID     LGT RAIN  37  30  75 SW10      29.68R WCI  30
FORT BRIDGER,  LGT SNOW  28  28 100 W8        29.70S WCI  20
EVANSTON, WY   LGT SNOW  27  24  89 SW6       29.67F FOG     WCI  20
ROCK SPRINGS,  LGT SNOW  18  14  84 CALM      29.67S FOG

$$




USA.gov is the U.S. government's official web portal to all federal, state and local government web resources and services.